[[{"header":{"parameterUnit":"m.s-1","parameterCategory":2,"la1":30.2991,"la2":30.254,"lo1":-89.0895,"lo2":-89.0444,"dy":0.0017,"dx":0.0017,"nx":28,"ny":28,"refTime":"2024-12-14T09:00:00:Z","depth":"0","parameterNumber":2,"parameterNumberName":"U-component_of_CURRENTS"},"data":[0,0,0,0,0,0,0,0,0,0,0,0,0,0,0,0,0,0,0,0,0,0,0,0,0,0,0,0,0,0,0,0,0,0,0,0,0,0,0,0,0,0,0,0,0,0,0,0,0,0,0,0,0,0,0,0,0,0,0.2209,0.221,0,0.2261,0.2261,0.2261,0.2266,0.2266,0.2265,0.2265,0.2267,0.2268,0.2268,0,0,0,0,0,0,0,0,0,0,0,0,0,0.2118,0.212,0.2209,0.221,0.2211,0.2261,0.2261,0.2262,0.2266,0.2266,0.2265,0.2265,0.2267,0.2268,0.2268,0,0,0,0,0,0,0,0,0,0,0,0,0,0.2161,0.212,0.2209,0.2221,0.2222,0.226,0.2261,0.2262,0.2266,0.2266,0.2265,0.2265,0.2267,0.2268,0.2268,0.2283,0,0,0.227,0.227,0,0,0,0,0,0,0,0,0.2158,0.2164,0.2218,0.222,0.2222,0.2258,0.223,0.2267,0.2266,0.2247,0.2265,0.2265,0.2262,0.2263,0.2271,0.2283,0.2283,0.227,0.2271,0.2271,0.2271,0,0,0,0,0,0,0,0.2155,0.2162,0.2227,0.2219,0.2221,0.2225,0.223,0.2237,0.2254,0.2249,0.225,0.2259,0.2262,0.2271,0.2271,0.2283,0.227,0.2271,0.2271,0.2271,0.2329,0.233,0,0,0,0,0,0,0.2154,0.2159,0.2226,0.2229,0.219,0.2227,0.2233,0.2245,0.2255,0.2257,0.226,0.2259,0.227,0.2271,0.2271,0.2308,0.2271,0.2271,0.2272,0.2328,0.2329,0.2331,0,0,0,0,0,0,0.2152,0.216,0.2224,0.2196,0.2205,0.2229,0.2244,0.2247,0.2257,0.2264,0.2265,0.2267,0.227,0.227,0.2285,0.2307,0.2272,0.2272,0.2326,0.2328,0.233,0.2369,0,0,0,0,0,0,0.2149,0.2159,0.2166,0.2197,0.2207,0.2252,0.2244,0.2248,0.2265,0.2265,0.2271,0.2271,0.2269,0.2285,0.2286,0.2307,0.2273,0.2325,0.2327,0.2329,0.2366,0.2372,0.2377,0,0,0,0,0,0.2146,0.2159,0.2166,0.2174,0.2216,0.2253,0.2258,0.2272,0.2266,0.2277,0.2281,0.2271,0.23,0.2286,0.2287,0.2309,0.2324,0.2327,0.2329,0.2364,0.2371,0.2377,0,0,0,0,0,0,0.2122,0.2162,0.217,0.2194,0.2224,0.2254,0.2268,0.2275,0.2288,0.2286,0.2283,0.2284,0.2306,0.2304,0.2289,0.2334,0.2311,0.2314,0.2337,0.2344,0.2349,0.2349,0.2273,0,0,0,0,0,0.2121,0.2142,0.218,0.22,0.2216,0.2241,0.2256,0.2269,0.2287,0.2292,0.2296,0.2304,0.232,0.2327,0.2337,0.2359,0.2374,0.2376,0.2381,0.2386,0.2388,0.2422,0.2431,0.2339,0.2339,0.2339,0,0,0.2116,0.2143,0.2152,0.2196,0.2219,0.2249,0.2249,0.2279,0.2302,0.229,0.2315,0.2321,0.233,0.2358,0.2368,0.2357,0.2426,0.2389,0.2393,0.2392,0.2426,0.2435,0.2443,0.2341,0.2341,0.234,0,0,0.2121,0.2143,0.2163,0.2193,0.2235,0.2256,0.2265,0.23,0.2313,0.2341,0.2342,0.2361,0.2379,0.2396,0.2405,0.2446,0.2451,0.2449,0.2477,0.2511,0.2519,0.2526,0.2581,0.2592,0.2453,0.2453,0.2453,0,0.211,0.2145,0.2174,0.2207,0.2232,0.2259,0.2289,0.2313,0.2346,0.2364,0.2352,0.2396,0.24,0.2443,0.2458,0.2458,0.2483,0.2451,0.2518,0.2525,0.2531,0.2585,0.2597,0.2456,0.2455,0.2455,0.2455,0,0.2135,0.2164,0.2181,0.223,0.2263,0.2293,0.2335,0.2361,0.2376,0.24,0.244,0.245,0.2477,0.2485,0.2483,0.2535,0.2542,0.2519,0.25,0.2543,0.2598,0.261,0.2459,0.2458,0.2457,0.2457,0,0,0.2105,0.2181,0.2186,0.2216,0.2278,0.2308,0.2354,0.2405,0.2439,0.2464,0.2507,0.2533,0.2539,0.255,0.2554,0.2581,0.2654,0.257,0.2571,0.2623,0.275,0.2858,0.2881,0.2641,0.2643,0.2644,0.278,0,0.2113,0.2173,0.221,0.2264,0.2301,0.2345,0.2387,0.2438,0.2476,0.2524,0.2547,0.2588,0.2566,0.2585,0.2609,0.2644,0.2682,0.262,0.2703,0.2706,0.2794,0.2897,0.2843,0.2968,0.2791,0.2793,0.2795,0,0.2122,0.2167,0.222,0.2294,0.2313,0.2345,0.2423,0.2463,0.2538,0.2571,0.2614,0.2638,0.2697,0.266,0.2746,0.2708,0.2734,0.2753,0.2758,0.285,0.2836,0.2892,0.2996,0.2918,0.2813,0.2811,0.281,0,0.2096,0.217,0.2212,0.2238,0.2325,0.2353,0.2393,0.2472,0.2528,0.2602,0.2663,0.2711,0.277,0.279,0.2859,0.28,0.2964,0.2883,0.3006,0.3014,0.2981,0.2985,0.3015,0.2941,0.2941,0.294,0.294,0,0.2091,0.2123,0.2201,0.2228,0.2276,0.2341,0.24,0.2449,0.255,0.2622,0.2681,0.2768,0.2805,0.2908,0.291,0.3045,0.3016,0.3049,0.3069,0.2999,0.3002,0.2943,0.2895,0.2945,0.2944,0.2943,0.2942,0,0.2051,0.2105,0.2152,0.2237,0.2264,0.2292,0.2401,0.2452,0.2555,0.2657,0.2693,0.285,0.2998,0.3071,0.3154,0.3159,0.3171,0.3278,0.3222,0.3234,0.3248,0.3205,0.3156,0.3047,0.3414,0.3418,0.3421,0,0.2033,0.2058,0.2138,0.2167,0.22,0.2263,0.231,0.2426,0.2496,0.2707,0.276,0.2972,0.3123,0.3352,0.341,0.3507,0.3333,0.349,0.336,0.3291,0.3255,0.3072,0.2965,0.3329,0.3331,0.3333,0.3334,0,0.1995,0.202,0.2061,0.2122,0.2168,0.2227,0.2309,0.2377,0.2522,0.266,0.2866,0.3021,0.3301,0.343,0.361,0.3629,0.3349,0.3531,0.3447,0.3212,0.3021,0.2911,0.3209,0.3349,0.3348,0.3347,0.3346,0.3345,0.1951,0.1963,0.2021,0.2067,0.2123,0.2182,0.2205,0.2331,0.2468,0.2634,0.2846,0.3042,0.332,0.3599,0.3612,0.3632,0.3511,0.3509,0.3472,0.3298,0.3162,0.3541,0.3715,0.3715,0.3716,0.3716,0.3716,0,0.1893,0.1926,0.197,0.2019,0.2045,0.2106,0.2195,0.2214,0.2335,0.2551,0.274,0.3062,0.3281,0.3452,0.3643,0.3563,0.3316,0.3462,0.3133,0.3031,0.3375,0.3343,0.3459,0.3459,0.3459,0.3459,0.3459,0.3459,0.1865,0.1882,0.1908,0.1928,0.1964,0.1963,0.1992,0.2053,0.218,0.2392,0.2574,0.2771,0.3207,0.3553,0.3579,0.348,0.3139,0.3078,0.2978,0.3194,0.319,0.3187,0.3143,0.3216,0.3216,0.2483,0.2478,0.2474]},{"header":{"parameterUnit":"m.s-1","parameterCategory":2,"la1":30.2991,"la2":30.254,"lo1":-89.0895,"lo2":-89.0444,"dy":0.0017,"dx":0.0017,"nx":28,"ny":28,"refTime":"2024-12-14T09:00:00:Z","depth":"0","parameterNumber":3,"parameterNumberName":"V-component_of_CURRENTS"},"data":[0,0,0,0,0,0,0,0,0,0,0,0,0,0,0,0,0,0,0,0,0,0,0,0,0,0,0,0,0,0,0,0,0,0,0,0,0,0,0,0,0,0,0,0,0,0,0,0,0,0,0,0,0,0,0,0,0,0,-0.0484,-0.0485,0,-0.0573,-0.0574,-0.0575,-0.0635,-0.0635,-0.0636,-0.0636,-0.0757,-0.076,-0.0763,0,0,0,0,0,0,0,0,0,0,0,0,0,-0.042,-0.042,-0.0484,-0.0485,-0.0486,-0.0572,-0.0574,-0.0575,-0.0635,-0.0635,-0.0636,-0.0636,-0.0756,-0.076,-0.0763,0,0,0,0,0,0,0,0,0,0,0,0,0,-0.0472,-0.0421,-0.0484,-0.0526,-0.0531,-0.0572,-0.0574,-0.0575,-0.0635,-0.0636,-0.0636,-0.0637,-0.0755,-0.0759,-0.0764,-0.0779,0,0,-0.0777,-0.0779,0,0,0,0,0,0,0,0,-0.0469,-0.0475,-0.0519,-0.0523,-0.0529,-0.0593,-0.0595,-0.0645,-0.0635,-0.0596,-0.0636,-0.0637,-0.0704,-0.0713,-0.0729,-0.0784,-0.079,-0.0777,-0.078,-0.0782,-0.0783,0,0,0,0,0,0,0,-0.0465,-0.0472,-0.052,-0.052,-0.0526,-0.0559,-0.0566,-0.0605,-0.0647,-0.06,-0.0604,-0.0613,-0.0707,-0.0724,-0.0732,-0.0791,-0.0777,-0.0781,-0.0783,-0.0785,-0.0877,-0.0876,0,0,0,0,0,0,-0.045,-0.0468,-0.0517,-0.0523,-0.0499,-0.0559,-0.0568,-0.0572,-0.0646,-0.0658,-0.0612,-0.0615,-0.0717,-0.0727,-0.0737,-0.0761,-0.0782,-0.0786,-0.0788,-0.0877,-0.0877,-0.0876,0,0,0,0,0,0,-0.0448,-0.0453,-0.0514,-0.0497,-0.0507,-0.0559,-0.0564,-0.0574,-0.059,-0.0655,-0.0667,-0.0618,-0.0718,-0.0731,-0.0769,-0.0766,-0.0787,-0.0791,-0.0877,-0.0877,-0.0877,-0.0808,0,0,0,0,0,0,-0.0446,-0.0452,-0.0447,-0.0496,-0.0507,-0.0529,-0.0564,-0.0575,-0.0594,-0.0599,-0.0664,-0.0676,-0.0719,-0.0762,-0.0773,-0.0772,-0.0795,-0.0877,-0.0877,-0.0877,-0.081,-0.0805,-0.0801,0,0,0,0,0,-0.0443,-0.0431,-0.0446,-0.0453,-0.05,-0.0529,-0.0537,-0.0578,-0.0594,-0.0595,-0.0642,-0.0674,-0.0768,-0.0765,-0.0778,-0.0778,-0.0877,-0.0877,-0.0877,-0.0812,-0.0806,-0.0801,0,0,0,0,0,0,-0.0396,-0.0438,-0.0455,-0.0455,-0.0486,-0.0539,-0.0542,-0.057,-0.0608,-0.0612,-0.0674,-0.0689,-0.0721,-0.0758,-0.0753,-0.0804,-0.0828,-0.083,-0.0774,-0.0769,-0.0764,-0.0753,-0.0798,0,0,0,0,0,-0.0384,-0.0388,-0.0432,-0.0431,-0.0443,-0.0491,-0.0507,-0.0533,-0.0574,-0.0591,-0.0637,-0.0687,-0.0729,-0.0754,-0.0795,-0.0823,-0.086,-0.0832,-0.0827,-0.0823,-0.0822,-0.088,-0.0881,-0.0875,-0.0875,-0.0875,0,0,-0.0366,-0.0388,-0.039,-0.0422,-0.0449,-0.0459,-0.0502,-0.0518,-0.053,-0.0598,-0.0624,-0.067,-0.0732,-0.0764,-0.0782,-0.0795,-0.084,-0.0822,-0.0818,-0.082,-0.088,-0.0881,-0.0881,-0.0875,-0.0875,-0.0875,0,0,-0.033,-0.0349,-0.0342,-0.0365,-0.0399,-0.0429,-0.0429,-0.0477,-0.05,-0.0531,-0.0583,-0.0626,-0.0688,-0.0735,-0.0766,-0.076,-0.0811,-0.0772,-0.0743,-0.0799,-0.08,-0.0802,-0.0829,-0.0834,-0.0772,-0.0772,-0.0772,0,-0.0304,-0.0305,-0.0343,-0.0345,-0.0357,-0.0409,-0.0405,-0.0436,-0.0491,-0.051,-0.0528,-0.0627,-0.0676,-0.0727,-0.0726,-0.075,-0.0782,-0.0757,-0.0793,-0.0795,-0.0798,-0.0826,-0.0832,-0.0769,-0.0769,-0.0769,-0.077,0,-0.0271,-0.0271,-0.0267,-0.0287,-0.0304,-0.0307,-0.0354,-0.0373,-0.0406,-0.0447,-0.0498,-0.0569,-0.0629,-0.0651,-0.0689,-0.0731,-0.0746,-0.0777,-0.0804,-0.0794,-0.0825,-0.0832,-0.0764,-0.0765,-0.0766,-0.0767,0,0,-0.0212,-0.0237,-0.0235,-0.0233,-0.0273,-0.028,-0.0298,-0.0332,-0.034,-0.0405,-0.0427,-0.0511,-0.0556,-0.0594,-0.0651,-0.0703,-0.0742,-0.0742,-0.0747,-0.0763,-0.0848,-0.0796,-0.08,-0.0782,-0.0783,-0.0784,-0.0854,0,-0.0172,-0.0156,-0.0185,-0.0167,-0.0162,-0.0212,-0.0221,-0.0261,-0.0304,-0.0337,-0.0426,-0.0466,-0.0534,-0.0555,-0.0622,-0.0713,-0.0761,-0.0719,-0.0861,-0.0865,-0.0816,-0.0807,-0.0745,-0.0796,-0.0861,-0.0862,-0.0863,0,-0.0129,-0.0125,-0.01,-0.0105,-0.0106,-0.0105,-0.0126,-0.0144,-0.0212,-0.0245,-0.0317,-0.0384,-0.0473,-0.0523,-0.0685,-0.0655,-0.0744,-0.0815,-0.082,-0.0804,-0.0827,-0.0823,-0.0808,-0.0997,-0.0875,-0.0874,-0.0873,0,-0.0067,-0.0063,-0.0036,-0.0041,-0.0057,-0.0052,-0.0065,-0.0115,-0.0112,-0.0188,-0.0187,-0.0324,-0.0357,-0.0514,-0.0656,-0.0678,-0.0817,-0.087,-0.0907,-0.0904,-0.0895,-0.0888,-0.1075,-0.098,-0.0979,-0.0979,-0.0979,0,-0.0014,0.001,-0.0001,0.0013,0.0053,0.0011,0.0041,0.0007,-0.0021,0.0003,-0.0133,-0.0122,-0.0354,-0.0457,-0.0626,-0.0769,-0.0799,-0.0896,-0.0921,-0.0865,-0.0855,-0.1053,-0.1177,-0.0982,-0.0981,-0.0981,-0.098,0,0.0052,0.0042,0.0077,0.0077,0.0086,0.011,0.013,0.0151,0.0111,0.0141,0.013,0.0033,-0.0084,-0.0306,-0.0528,-0.0686,-0.095,-0.09,-0.0797,-0.0809,-0.1023,-0.1143,-0.1355,-0.1432,-0.097,-0.0969,-0.0968,0,0.0088,0.0112,0.0137,0.0173,0.018,0.0213,0.0245,0.0219,0.0258,0.0259,0.0297,0.0209,0.0199,-0.0105,-0.0397,-0.0672,-0.0888,-0.0821,-0.086,-0.102,-0.1175,-0.1266,-0.1324,-0.0822,-0.082,-0.0818,-0.0817,0,0.0159,0.0167,0.0197,0.027,0.0316,0.0371,0.042,0.048,0.0473,0.0534,0.0619,0.062,0.0362,0.0151,-0.0233,-0.0456,-0.094,-0.0796,-0.1011,-0.1108,-0.1175,-0.1263,-0.0781,-0.0804,-0.0805,-0.0806,-0.0807,-0.0807,0.022,0.0258,0.0304,0.0379,0.0438,0.0535,0.0613,0.0698,0.0817,0.0939,0.0905,0.0973,0.0605,0.0126,-0.0202,-0.0771,-0.0821,-0.0955,-0.1095,-0.1179,-0.1236,-0.0695,-0.0714,-0.0715,-0.0716,-0.0716,-0.0717,0,0.0302,0.0344,0.0414,0.0506,0.0598,0.0607,0.0741,0.0848,0.1042,0.1167,0.1277,0.1171,0.0719,0.0177,-0.056,-0.0985,-0.118,-0.1258,-0.1412,-0.1463,-0.1021,-0.0994,-0.1014,-0.1014,-0.1013,-0.1013,-0.1013,-0.1013,0.035,0.0435,0.0469,0.0634,0.0708,0.0853,0.0947,0.1124,0.1257,0.1476,0.1554,0.1569,0.1183,-0.0182,-0.1124,-0.1371,-0.1722,-0.1773,-0.1969,-0.1704,-0.1688,-0.1673,-0.1678,-0.184,-0.1841,-0.2326,-0.2331,-0.2335]}],[{"header":{"parameterUnit":"m.s-1","parameterCategory":2,"la1":30.2991,"la2":30.254,"lo1":-89.0895,"lo2":-89.0444,"dy":0.0017,"dx":0.0017,"nx":28,"ny":28,"refTime":"2024-12-14T09:00:00:Z","depth":"2","parameterNumber":2,"parameterNumberName":"U-component_of_CURRENTS"},"data":[0,0,0,0,0,0,0,0,0,0,0,0,0,0,0,0,0,0,0,0,0,0,0,0,0,0,0,0,0,0,0,0,0,0,0,0,0,0,0,0,0,0,0,0,0,0,0,0,0,0,0,0,0,0,0,0,0,0,0.2307,0.2307,0,0.2348,0.2349,0.2349,0.2371,0.2372,0.2372,0.2372,0.2391,0.2391,0.2391,0,0,0,0,0,0,0,0,0,0,0,0,0,0.2238,0.2239,0.2307,0.2307,0.2308,0.2348,0.2349,0.2349,0.2371,0.2372,0.2372,0.2372,0.2391,0.2391,0.2391,0,0,0,0,0,0,0,0,0,0,0,0,0,0.2271,0.224,0.2307,0.2325,0.2327,0.2348,0.2349,0.2349,0.2371,0.2372,0.2372,0.2372,0.239,0.2391,0.2391,0.2389,0,0,0.2393,0.2393,0,0,0,0,0,0,0,0,0.2269,0.2273,0.2322,0.2324,0.2326,0.2356,0.2332,0.2362,0.2371,0.2353,0.2372,0.2372,0.2378,0.2379,0.2385,0.2389,0.239,0.2393,0.2393,0.2393,0.2393,0,0,0,0,0,0,0,0.2267,0.2272,0.2322,0.2322,0.2325,0.2329,0.2334,0.2337,0.2362,0.2355,0.2357,0.2364,0.2379,0.2384,0.2385,0.239,0.2393,0.2393,0.2394,0.2394,0.2464,0.2465,0,0,0,0,0,0,0.2265,0.227,0.232,0.2323,0.23,0.233,0.2335,0.2345,0.2362,0.2366,0.2363,0.2365,0.2383,0.2385,0.2386,0.2447,0.2393,0.2394,0.2394,0.2462,0.2464,0.2466,0,0,0,0,0,0,0.2264,0.2269,0.2319,0.2298,0.2305,0.2331,0.2342,0.2346,0.2363,0.2369,0.2372,0.2378,0.2383,0.2385,0.2407,0.2445,0.2394,0.2394,0.2461,0.2463,0.2465,0.2528,0,0,0,0,0,0,0.2262,0.2269,0.2275,0.2298,0.2306,0.2341,0.2342,0.2347,0.2367,0.2369,0.2382,0.2384,0.2384,0.2407,0.2408,0.2445,0.2395,0.2458,0.2462,0.2464,0.2524,0.2532,0.2539,0,0,0,0,0,0.2259,0.2268,0.2275,0.2282,0.2315,0.2342,0.2346,0.2364,0.2367,0.2379,0.2392,0.2384,0.2427,0.2408,0.2409,0.2447,0.2457,0.2461,0.2464,0.2521,0.2531,0.2539,0,0,0,0,0,0,0.2237,0.2272,0.2281,0.2299,0.2323,0.2346,0.236,0.237,0.2389,0.2392,0.2396,0.2399,0.2433,0.2429,0.2409,0.2477,0.2444,0.2448,0.2487,0.2496,0.2504,0.2512,0.2395,0,0,0,0,0,0.2237,0.2257,0.2286,0.2301,0.2316,0.2339,0.2352,0.2364,0.2384,0.2393,0.2407,0.2425,0.2447,0.2462,0.2473,0.2505,0.2519,0.2533,0.2541,0.2548,0.2556,0.26,0.2613,0.2478,0.2478,0.2478,0,0,0.2234,0.2254,0.2266,0.2298,0.2319,0.2348,0.2348,0.2373,0.2403,0.2391,0.2436,0.2445,0.2459,0.2501,0.2517,0.2505,0.2599,0.2552,0.2558,0.2563,0.2605,0.2619,0.263,0.248,0.248,0.2479,0,0,0.2237,0.2258,0.2277,0.2301,0.2335,0.2355,0.2366,0.2399,0.2423,0.2456,0.2466,0.2501,0.2525,0.2557,0.2572,0.2628,0.2632,0.2634,0.2688,0.2731,0.2742,0.2752,0.2809,0.2823,0.2645,0.2645,0.2645,0,0.2231,0.226,0.2285,0.2311,0.2338,0.2362,0.2393,0.2421,0.2458,0.2492,0.2477,0.255,0.2556,0.2629,0.2653,0.2647,0.2673,0.265,0.2741,0.2751,0.276,0.2815,0.2831,0.2649,0.2648,0.2648,0.2648,0,0.2248,0.2277,0.2293,0.234,0.2371,0.24,0.2447,0.2485,0.2511,0.2544,0.2613,0.2628,0.2676,0.269,0.2687,0.277,0.2769,0.2739,0.2717,0.2778,0.2832,0.2847,0.2654,0.2652,0.2651,0.265,0,0,0.2217,0.2291,0.2296,0.2328,0.239,0.2416,0.2483,0.2553,0.2605,0.2644,0.2717,0.2762,0.2777,0.2795,0.2807,0.2848,0.294,0.2828,0.2829,0.2884,0.3054,0.3,0.3011,0.2925,0.2928,0.293,0.3074,0,0.2223,0.2275,0.2315,0.2374,0.2412,0.2469,0.2531,0.2599,0.2655,0.2732,0.2778,0.2837,0.2817,0.2845,0.2888,0.2923,0.2979,0.2905,0.2987,0.299,0.2933,0.3025,0.2818,0.2923,0.3088,0.309,0.3092,0,0.2222,0.2263,0.2319,0.2409,0.2431,0.247,0.2581,0.2638,0.2756,0.2801,0.2878,0.2912,0.3002,0.2955,0.3067,0.3021,0.3049,0.3069,0.3074,0.3009,0.2962,0.2884,0.2943,0.3117,0.3115,0.3113,0.3111,0,0.2185,0.2265,0.231,0.2338,0.244,0.2485,0.2546,0.2661,0.273,0.2852,0.2917,0.3007,0.307,0.3112,0.3168,0.3122,0.3284,0.322,0.3207,0.3204,0.3036,0.3013,0.3302,0.3302,0.3301,0.3301,0.3301,0,0.2171,0.2205,0.2295,0.2318,0.2383,0.2468,0.2548,0.263,0.276,0.2845,0.2947,0.3025,0.3111,0.321,0.3223,0.3282,0.3335,0.3244,0.3243,0.3054,0.3032,0.3191,0.3176,0.3306,0.3305,0.3304,0.3303,0,0.2116,0.2174,0.2229,0.2333,0.2363,0.241,0.2536,0.2599,0.2738,0.2856,0.2901,0.3076,0.3183,0.3278,0.3373,0.3362,0.3408,0.3415,0.32,0.317,0.3285,0.3272,0.3404,0.3403,0.3402,0.3402,0.3402,0,0.2088,0.2113,0.2213,0.224,0.2282,0.2361,0.2414,0.2561,0.2635,0.2864,0.2917,0.3094,0.3172,0.3336,0.3361,0.3418,0.3435,0.3246,0.3103,0.3313,0.33,0.3287,0.3275,0.2922,0.2917,0.2914,0.2911,0,0.2035,0.2073,0.2113,0.2175,0.2225,0.2286,0.2379,0.2432,0.2608,0.2714,0.2859,0.295,0.3144,0.3117,0.3233,0.3219,0.3211,0.3174,0.3476,0.2916,0.2867,0.285,0.2853,0.288,0.2883,0.2885,0.2887,0.2888,0.1979,0.1995,0.205,0.2095,0.215,0.2195,0.2209,0.2313,0.24,0.2542,0.2698,0.2776,0.2898,0.2939,0.2901,0.2895,0.3078,0.295,0.2957,0.2969,0.2876,0.2827,0.2817,0.282,0.2822,0.2824,0.2826,0,0.1907,0.1936,0.1971,0.2012,0.2021,0.2098,0.2167,0.2164,0.2202,0.2363,0.2462,0.2373,0.242,0.2521,0.2486,0.2528,0.2468,0.2413,0.2314,0.2351,0.2382,0.2252,0.2031,0.2028,0.2025,0.2022,0,0,0.187,0.1867,0.1886,0.1868,0.1899,0.1889,0.1904,0.1919,0.2001,0.202,0.2067,0.2303,0.2459,0.2191,0.2207,0.2103,0.2185,0.2028,0.2683,0.2603,0.2628,0.2734,0.2583,0,0,0,0,0]},{"header":{"parameterUnit":"m.s-1","parameterCategory":2,"la1":30.2991,"la2":30.254,"lo1":-89.0895,"lo2":-89.0444,"dy":0.0017,"dx":0.0017,"nx":28,"ny":28,"refTime":"2024-12-14T09:00:00:Z","depth":"2","parameterNumber":3,"parameterNumberName":"V-component_of_CURRENTS"},"data":[0,0,0,0,0,0,0,0,0,0,0,0,0,0,0,0,0,0,0,0,0,0,0,0,0,0,0,0,0,0,0,0,0,0,0,0,0,0,0,0,0,0,0,0,0,0,0,0,0,0,0,0,0,0,0,0,0,0,-0.0125,-0.0126,0,-0.0192,-0.0193,-0.0194,-0.0263,-0.0264,-0.0265,-0.0266,-0.0378,-0.0381,-0.0383,0,0,0,0,0,0,0,0,0,0,0,0,0,-0.0075,-0.0076,-0.0125,-0.0126,-0.0127,-0.0192,-0.0193,-0.0194,-0.0263,-0.0264,-0.0265,-0.0266,-0.0378,-0.038,-0.0383,0,0,0,0,0,0,0,0,0,0,0,0,0,-0.0117,-0.0076,-0.0125,-0.0168,-0.0172,-0.0192,-0.0193,-0.0195,-0.0263,-0.0264,-0.0265,-0.0267,-0.0377,-0.038,-0.0383,-0.0381,0,0,-0.0394,-0.0395,0,0,0,0,0,0,0,0,-0.0114,-0.0119,-0.0161,-0.0165,-0.017,-0.0219,-0.0217,-0.0259,-0.0263,-0.023,-0.0266,-0.0267,-0.0327,-0.0335,-0.0347,-0.0386,-0.0391,-0.0394,-0.0396,-0.0398,-0.0399,0,0,0,0,0,0,0,-0.0111,-0.0116,-0.0154,-0.0161,-0.0167,-0.0189,-0.0197,-0.0225,-0.0274,-0.0233,-0.0238,-0.0242,-0.0331,-0.0343,-0.035,-0.0393,-0.0394,-0.0397,-0.0399,-0.0401,-0.0478,-0.0478,0,0,0,0,0,0,-0.0097,-0.0113,-0.0152,-0.0156,-0.0142,-0.0189,-0.0197,-0.0204,-0.0273,-0.0283,-0.0241,-0.0245,-0.0337,-0.0346,-0.0354,-0.0385,-0.0398,-0.0401,-0.0403,-0.0478,-0.0478,-0.0478,0,0,0,0,0,0,-0.0096,-0.01,-0.0149,-0.0134,-0.0142,-0.0188,-0.0195,-0.0204,-0.0224,-0.0278,-0.029,-0.0252,-0.0338,-0.035,-0.0381,-0.0389,-0.0402,-0.0406,-0.0478,-0.0478,-0.0478,-0.0427,0,0,0,0,0,0,-0.0094,-0.0099,-0.0098,-0.0133,-0.0142,-0.0159,-0.0194,-0.0205,-0.0224,-0.023,-0.0291,-0.0303,-0.034,-0.0375,-0.0384,-0.0394,-0.0408,-0.0478,-0.0478,-0.0478,-0.0428,-0.0425,-0.0422,0,0,0,0,0,-0.0092,-0.0083,-0.0098,-0.0103,-0.014,-0.0158,-0.0165,-0.0203,-0.0223,-0.0227,-0.0268,-0.0301,-0.0383,-0.0378,-0.0388,-0.0399,-0.0478,-0.0478,-0.0478,-0.043,-0.0426,-0.0422,0,0,0,0,0,0,-0.0056,-0.009,-0.0107,-0.0108,-0.0131,-0.0169,-0.0173,-0.0198,-0.0233,-0.0241,-0.0295,-0.0309,-0.034,-0.0372,-0.0366,-0.0422,-0.0438,-0.044,-0.0398,-0.0394,-0.0391,-0.0388,-0.0411,0,0,0,0,0,-0.0047,-0.0052,-0.0086,-0.0085,-0.0095,-0.0134,-0.0146,-0.017,-0.0203,-0.022,-0.0265,-0.0311,-0.0346,-0.0372,-0.0405,-0.0431,-0.0463,-0.0447,-0.0444,-0.0441,-0.0446,-0.0504,-0.0506,-0.0478,-0.0478,-0.0478,0,0,-0.0035,-0.0049,-0.0055,-0.0077,-0.01,-0.0105,-0.0145,-0.0157,-0.0164,-0.0226,-0.0253,-0.0296,-0.0348,-0.0379,-0.0397,-0.041,-0.0459,-0.0441,-0.0438,-0.0445,-0.0504,-0.0507,-0.0509,-0.0478,-0.0478,-0.0478,0,0,-0.0002,-0.0024,-0.0018,-0.0032,-0.0056,-0.0079,-0.0081,-0.0122,-0.0146,-0.0171,-0.0218,-0.0265,-0.0318,-0.0363,-0.0389,-0.0388,-0.0434,-0.0402,-0.0392,-0.0448,-0.0451,-0.0454,-0.0467,-0.0472,-0.0408,-0.0408,-0.0408,0,0.0014,0.0018,-0.0017,-0.0011,-0.0017,-0.0064,-0.0057,-0.0082,-0.0129,-0.015,-0.0172,-0.0264,-0.0311,-0.0356,-0.0366,-0.0382,-0.0409,-0.04,-0.0444,-0.0448,-0.0452,-0.0465,-0.0471,-0.0405,-0.0406,-0.0406,-0.0406,0,0.005,0.0052,0.0058,0.0046,0.0034,0.0036,-0.0003,-0.0022,-0.0059,-0.0098,-0.015,-0.0216,-0.0278,-0.0301,-0.0338,-0.0391,-0.0397,-0.0426,-0.0451,-0.0451,-0.0465,-0.0472,-0.0402,-0.0403,-0.0404,-0.0404,0,0,0.0089,0.0083,0.0084,0.0093,0.0065,0.0064,0.0049,0.0018,0.001,-0.0058,-0.0086,-0.0169,-0.0224,-0.0259,-0.0314,-0.0374,-0.0422,-0.0417,-0.0421,-0.0425,-0.052,-0.0479,-0.0483,-0.0466,-0.0467,-0.0469,-0.0507,0,0.0127,0.0157,0.0138,0.0164,0.0173,0.0131,0.0127,0.0089,0.0044,0.0004,-0.0087,-0.0135,-0.02,-0.0235,-0.0305,-0.039,-0.0444,-0.0408,-0.0525,-0.0527,-0.0488,-0.0491,-0.0474,-0.0504,-0.0514,-0.0515,-0.0516,0,0.0167,0.0183,0.0214,0.0226,0.0226,0.0229,0.0211,0.0199,0.0125,0.0086,0.0005,-0.0066,-0.0163,-0.0219,-0.0366,-0.0342,-0.0433,-0.05,-0.0503,-0.0493,-0.0501,-0.0514,-0.0518,-0.0529,-0.0528,-0.0527,-0.0526,0,0.0216,0.0239,0.0269,0.0271,0.0272,0.0273,0.0263,0.0213,0.0214,0.0122,0.0112,-0.0019,-0.0067,-0.0211,-0.0345,-0.0372,-0.0491,-0.0541,-0.0583,-0.0579,-0.0601,-0.0597,-0.0656,-0.0656,-0.0656,-0.0656,-0.0656,0,0.0267,0.0292,0.0294,0.0313,0.0351,0.0322,0.0343,0.0312,0.0277,0.0295,0.0151,0.0158,-0.0075,-0.0164,-0.0315,-0.0443,-0.0466,-0.0578,-0.0595,-0.0577,-0.0571,-0.063,-0.0627,-0.0657,-0.0657,-0.0657,-0.0656,0,0.0313,0.0315,0.0354,0.0366,0.0374,0.0393,0.0408,0.043,0.0383,0.0403,0.0379,0.0279,0.0168,-0.0028,-0.0236,-0.0371,-0.052,-0.0562,-0.0499,-0.0508,-0.0582,-0.0576,-0.0633,-0.0632,-0.0632,-0.0631,-0.063,0,0.0342,0.0364,0.0398,0.0431,0.0437,0.0462,0.0493,0.0471,0.0513,0.051,0.0548,0.0441,0.0402,0.0134,-0.014,-0.0386,-0.0442,-0.0525,-0.059,-0.0574,-0.0585,-0.0579,-0.0574,-0.059,-0.0589,-0.0589,-0.0588,0,0.0395,0.0399,0.0436,0.0498,0.054,0.0594,0.0642,0.0697,0.07,0.073,0.0787,0.075,0.0504,0.0261,-0.0079,-0.0254,-0.0493,-0.0517,-0.0538,-0.0585,-0.0533,-0.0543,-0.054,-0.0582,-0.0583,-0.0583,-0.0583,-0.0584,0.0435,0.0467,0.0512,0.0574,0.0633,0.0719,0.0775,0.0856,0.0936,0.1002,0.0981,0.0944,0.0653,0.0231,-0.0071,-0.0409,-0.0415,-0.0552,-0.0555,-0.0559,-0.0534,-0.0482,-0.0515,-0.0515,-0.0515,-0.0515,-0.0515,0,0.0483,0.052,0.0587,0.0662,0.0739,0.0757,0.0881,0.0947,0.1066,0.1138,0.117,0.0923,0.0647,0.032,-0.0173,-0.0466,-0.0529,-0.0555,-0.0579,-0.0582,-0.0585,-0.0563,-0.0552,-0.0553,-0.0553,-0.0554,0,0,0.0509,0.0577,0.0608,0.0737,0.0798,0.0906,0.098,0.1086,0.1168,0.124,0.1233,0.1176,0.0775,0.0424,0.0015,-0.0266,-0.0362,-0.0328,-0.0268,-0.0252,-0.0252,-0.0553,-0.0518,0,0,0,0,0]}],[{"header":{"parameterUnit":"m.s-1","parameterCategory":2,"la1":30.2991,"la2":30.254,"lo1":-89.0895,"lo2":-89.0444,"dy":0.0017,"dx":0.0017,"nx":28,"ny":28,"refTime":"2024-12-14T09:00:00:Z","depth":"4","parameterNumber":2,"parameterNumberName":"U-component_of_CURRENTS"},"data":[0,0,0,0,0,0,0,0,0,0,0,0,0,0,0,0,0,0,0,0,0,0,0,0,0,0,0,0,0,0,0,0,0,0,0,0,0,0,0,0,0,0,0,0,0,0,0,0,0,0,0,0,0,0,0,0,0,0,0.1423,0.1424,0,0.1485,0.1486,0.1487,0.1534,0.1535,0.1535,0.1536,0.1622,0.1623,0.1625,0,0,0,0,0,0,0,0,0,0,0,0,0,0.1332,0.1333,0.1423,0.1424,0.1425,0.1485,0.1486,0.1487,0.1534,0.1535,0.1536,0.1536,0.1621,0.1623,0.1625,0,0,0,0,0,0,0,0,0,0,0,0,0,0.1379,0.1334,0.1423,0.1457,0.1461,0.1485,0.1486,0.1487,0.1534,0.1535,0.1536,0.1536,0.162,0.1623,0.1625,0.1625,0,0,0.1634,0.1635,0,0,0,0,0,0,0,0,0.1377,0.1382,0.1451,0.1455,0.1459,0.1504,0.1485,0.1535,0.1534,0.1505,0.1536,0.1537,0.1584,0.159,0.1598,0.1629,0.1633,0.1634,0.1635,0.1637,0.1637,0,0,0,0,0,0,0,0.1373,0.138,0.1447,0.1452,0.1457,0.1464,0.1472,0.1495,0.1539,0.1508,0.1511,0.152,0.1587,0.1595,0.1601,0.1634,0.1634,0.1636,0.1638,0.1639,0.1758,0.1759,0,0,0,0,0,0,0.1368,0.1377,0.1445,0.1449,0.142,0.1465,0.1474,0.1488,0.1538,0.1547,0.1519,0.1522,0.159,0.1597,0.1604,0.1687,0.1636,0.1639,0.164,0.1756,0.1758,0.176,0,0,0,0,0,0,0.1366,0.1373,0.1442,0.1415,0.1424,0.1466,0.1481,0.1488,0.153,0.1547,0.1556,0.1556,0.1591,0.16,0.1655,0.1688,0.164,0.1643,0.1754,0.1757,0.1759,0.1803,0,0,0,0,0,0,0.1363,0.1372,0.1395,0.1415,0.1426,0.1479,0.1481,0.1489,0.1532,0.1537,0.1581,0.1588,0.1593,0.1652,0.1658,0.1691,0.1645,0.1752,0.1756,0.1758,0.1799,0.1806,0.1812,0,0,0,0,0,0.1359,0.138,0.1395,0.1404,0.145,0.148,0.1488,0.1518,0.1533,0.1557,0.159,0.1589,0.1675,0.1655,0.1662,0.1697,0.1751,0.1755,0.1758,0.1797,0.1805,0.1812,0,0,0,0,0,0,0.1351,0.1388,0.1405,0.1437,0.1468,0.149,0.1518,0.1536,0.158,0.1596,0.161,0.1619,0.1679,0.1683,0.1661,0.174,0.1712,0.1718,0.1739,0.1747,0.1754,0.1756,0.1647,0,0,0,0,0,0.1359,0.139,0.142,0.145,0.1468,0.15,0.1522,0.1545,0.1578,0.1599,0.1629,0.1662,0.1693,0.1718,0.1744,0.1788,0.1795,0.1816,0.1822,0.1827,0.1835,0.1878,0.1889,0.1772,0.1772,0.1771,0,0,0.1364,0.139,0.1409,0.1452,0.148,0.1508,0.1516,0.1561,0.1592,0.1601,0.1663,0.169,0.1711,0.1761,0.1788,0.1773,0.1864,0.1832,0.1836,0.1841,0.1883,0.1894,0.1904,0.1774,0.1774,0.1773,0,0,0.1379,0.1416,0.1443,0.1472,0.1521,0.1539,0.1559,0.1602,0.1634,0.1689,0.1703,0.1752,0.1801,0.1821,0.1835,0.1895,0.1897,0.1909,0.1946,0.1987,0.1997,0.2006,0.2024,0.2035,0.1912,0.1912,0.1912,0,0.1386,0.1422,0.1456,0.1486,0.1513,0.1555,0.1585,0.162,0.1678,0.1709,0.1719,0.1806,0.1827,0.1879,0.1904,0.1909,0.1929,0.1912,0.1995,0.2004,0.2012,0.2029,0.204,0.1915,0.1915,0.1914,0.1914,0,0.1409,0.145,0.147,0.1522,0.1554,0.1593,0.1635,0.1684,0.1728,0.176,0.1838,0.187,0.1921,0.1937,0.1942,0.2013,0.2006,0.1997,0.1973,0.2027,0.2041,0.2051,0.1918,0.1918,0.1917,0.1916,0,0,0.1393,0.1471,0.1482,0.1512,0.1579,0.1604,0.1665,0.1725,0.1771,0.1837,0.1893,0.1957,0.1987,0.2006,0.2022,0.2062,0.2136,0.2065,0.2066,0.2078,0.2225,0.2122,0.2123,0.215,0.2152,0.2154,0.2209,0,0.1405,0.1462,0.1499,0.1558,0.1589,0.1646,0.1692,0.1756,0.1816,0.1882,0.1937,0.1999,0.2009,0.2044,0.2089,0.2133,0.2167,0.2121,0.2175,0.2176,0.2074,0.2132,0.2161,0.2216,0.2219,0.222,0.2221,0,0.1407,0.1449,0.1504,0.1579,0.1599,0.1641,0.1727,0.1779,0.1874,0.1924,0.2,0.2042,0.2127,0.2116,0.222,0.2197,0.2219,0.2239,0.2241,0.2137,0.2093,0.2154,0.224,0.2238,0.2237,0.2236,0.2235,0,0.1367,0.1449,0.1495,0.1521,0.1609,0.1652,0.1709,0.1799,0.1854,0.1962,0.2013,0.2106,0.2171,0.2223,0.2288,0.2265,0.2388,0.2349,0.2268,0.226,0.2315,0.2305,0.2407,0.2407,0.2407,0.2407,0.2407,0,0.1347,0.1389,0.1487,0.1511,0.157,0.1642,0.1715,0.1784,0.1887,0.1953,0.2039,0.2098,0.2209,0.2288,0.2316,0.2338,0.2414,0.2286,0.2275,0.2331,0.2322,0.2321,0.2311,0.2409,0.2408,0.2408,0.2408,0,0.1291,0.1357,0.1413,0.1516,0.1552,0.1598,0.1717,0.1766,0.1875,0.1964,0.2005,0.2132,0.2234,0.2318,0.2414,0.2368,0.2395,0.2376,0.2442,0.2432,0.2224,0.2215,0.2269,0.2266,0.2264,0.2262,0.226,0,0.1265,0.129,0.1403,0.1439,0.1492,0.1574,0.1626,0.1748,0.18,0.1968,0.1997,0.2139,0.2212,0.2258,0.2356,0.2398,0.2375,0.236,0.2274,0.2229,0.2214,0.2209,0.2204,0.2256,0.2255,0.2254,0.2254,0,0.1211,0.1263,0.1311,0.1385,0.1449,0.1506,0.1594,0.162,0.1762,0.1876,0.1948,0.2008,0.2117,0.219,0.2254,0.2275,0.2354,0.2332,0.2336,0.2255,0.2213,0.22,0.2198,0.2245,0.2246,0.2247,0.2248,0,0.1174,0.1192,0.1263,0.1316,0.139,0.1419,0.1474,0.1541,0.1608,0.1786,0.1815,0.1965,0.2099,0.2128,0.2187,0.221,0.2164,0.208,0.2095,0.2106,0.2032,0.1954,0.1907,0,0,0,0,0,0.1127,0.1142,0.1189,0.1238,0.1306,0.1351,0.1444,0.1501,0.1634,0.1644,0.1725,0.1815,0.1906,0.1983,0.1975,0.2121,0.2175,0.2102,0.2086,0.2196,0.2206,0.2137,0,0,0,0,0,0,0.1097,0.1141,0.1159,0.1162,0.1184,0.1245,0.1302,0.1392,0.1397,0.1543,0.1598,0.1716,0.1827,0.19,0.1945,0.1971,0.1927,0.2202,0.2198,0.219,0.22,0.2208,0.214,0,0,0,0,0]},{"header":{"parameterUnit":"m.s-1","parameterCategory":2,"la1":30.2991,"la2":30.254,"lo1":-89.0895,"lo2":-89.0444,"dy":0.0017,"dx":0.0017,"nx":28,"ny":28,"refTime":"2024-12-14T09:00:00:Z","depth":"4","parameterNumber":3,"parameterNumberName":"V-component_of_CURRENTS"},"data":[0,0,0,0,0,0,0,0,0,0,0,0,0,0,0,0,0,0,0,0,0,0,0,0,0,0,0,0,0,0,0,0,0,0,0,0,0,0,0,0,0,0,0,0,0,0,0,0,0,0,0,0,0,0,0,0,0,0,0.0119,0.0119,0,0.0068,0.0067,0.0066,0.0037,0.0037,0.0037,0.0037,-0.0039,-0.0041,-0.0043,0,0,0,0,0,0,0,0,0,0,0,0,0,0.0162,0.0161,0.0119,0.0119,0.0118,0.0068,0.0067,0.0066,0.0037,0.0037,0.0037,0.0037,-0.0038,-0.0041,-0.0043,0,0,0,0,0,0,0,0,0,0,0,0,0,0.0129,0.0161,0.012,0.0098,0.0096,0.0068,0.0067,0.0066,0.0037,0.0037,0.0037,0.0037,-0.0038,-0.0041,-0.0043,-0.006,0,0,-0.0053,-0.0054,0,0,0,0,0,0,0,0,0.0131,0.0128,0.0102,0.0099,0.0097,0.0059,0.0054,0.0023,0.0037,0.0058,0.0037,0.0037,-0.0008,-0.0013,-0.0024,-0.0064,-0.0067,-0.0053,-0.0055,-0.0056,-0.0057,0,0,0,0,0,0,0,0.0134,0.013,0.0098,0.0101,0.0098,0.008,0.0076,0.0048,0.0025,0.0057,0.0054,0.005,-0.001,-0.0021,-0.0026,-0.0068,-0.0053,-0.0055,-0.0057,-0.0058,-0.0118,-0.0118,0,0,0,0,0,0,0.0143,0.0132,0.01,0.0097,0.0115,0.008,0.0075,0.0071,0.0026,0.002,0.005,0.0049,-0.0016,-0.0022,-0.0028,-0.0033,-0.0056,-0.0059,-0.006,-0.0118,-0.0118,-0.0118,0,0,0,0,0,0,0.0144,0.0141,0.0102,0.0114,0.0108,0.008,0.0075,0.007,0.006,0.0021,0.0014,0.0045,-0.0016,-0.0024,-0.0048,-0.0037,-0.006,-0.0063,-0.0118,-0.0118,-0.0118,-0.0054,0,0,0,0,0,0,0.0146,0.0141,0.0141,0.0114,0.0107,0.0091,0.0075,0.0069,0.0057,0.0055,0.0015,0.0008,-0.0017,-0.0043,-0.0051,-0.0041,-0.0065,-0.0119,-0.0118,-0.0118,-0.0056,-0.0052,-0.0047,0,0,0,0,0,0.0147,0.0149,0.0141,0.0137,0.0108,0.0091,0.0086,0.0065,0.0057,0.0055,0.003,0.0009,-0.0046,-0.0046,-0.0055,-0.0046,-0.0119,-0.0118,-0.0118,-0.0058,-0.0052,-0.0048,0,0,0,0,0,0,0.0165,0.0145,0.0137,0.0131,0.0115,0.0086,0.0082,0.0068,0.0046,0.0044,0.0009,-0.0,-0.0017,-0.0042,-0.0041,-0.0062,-0.0085,-0.0086,-0.0037,-0.0032,-0.0027,-0.0005,-0.0067,0,0,0,0,0,0.017,0.0168,0.0144,0.0141,0.0134,0.0109,0.0099,0.0086,0.0064,0.0054,0.0027,-0.0001,-0.0023,-0.0035,-0.0063,-0.0075,-0.0097,-0.0075,-0.0071,-0.0067,-0.0055,-0.0075,-0.0071,-0.0116,-0.0116,-0.0116,0,0,0.0177,0.0165,0.0164,0.0145,0.013,0.013,0.0103,0.0093,0.0096,0.0049,0.0042,0.001,-0.0025,-0.0037,-0.0046,-0.0055,-0.0068,-0.0066,-0.0062,-0.0053,-0.0074,-0.007,-0.0066,-0.0116,-0.0116,-0.0116,0,0,0.0193,0.0179,0.0184,0.0175,0.0158,0.0145,0.0145,0.0119,0.0111,0.0096,0.0068,0.0045,0.0006,-0.001,-0.0025,-0.0014,-0.0046,-0.0024,0.002,0.0001,0.0005,0.0008,-0.0021,-0.0021,-0.0018,-0.0018,-0.0018,0,0.0202,0.0206,0.0183,0.0187,0.0188,0.0157,0.0168,0.0155,0.0126,0.0126,0.0102,0.0058,0.0022,0.002,0.0023,-0.0002,-0.002,0.0005,0.0009,0.0011,0.0013,-0.0017,-0.0018,-0.0015,-0.0015,-0.0015,-0.0016,0,0.0222,0.0228,0.0231,0.0231,0.0228,0.0231,0.0215,0.021,0.0193,0.018,0.0167,0.0118,0.0095,0.0078,0.0052,0.0056,0.0034,0.0015,-0.0,0.0022,-0.0012,-0.0014,-0.001,-0.0011,-0.0012,-0.0013,0,0,0.0238,0.0245,0.0247,0.0262,0.0254,0.0256,0.0266,0.0268,0.0284,0.0246,0.0259,0.0212,0.0186,0.0168,0.0131,0.0113,0.0101,0.0078,0.0075,0.0058,0.0055,0.0003,-0.0005,0.0087,0.0087,0.0087,0.0022,0,0.0262,0.0289,0.0284,0.0317,0.0332,0.032,0.0336,0.0335,0.0323,0.0326,0.0283,0.0272,0.0221,0.021,0.0186,0.0122,0.0101,0.012,0.0028,0.0025,-0.0016,-0.0007,0.0088,0.0021,0.002,0.002,0.0019,0,0.0282,0.0301,0.0337,0.0373,0.0378,0.0394,0.0422,0.0431,0.0428,0.0419,0.0402,0.0364,0.0332,0.0282,0.0197,0.0213,0.0144,0.0091,0.0086,0.0018,-0.003,-0.0007,0.0016,0.0016,0.0016,0.0017,0.0017,0,0.0307,0.034,0.0376,0.0384,0.0414,0.0434,0.0451,0.046,0.0481,0.0478,0.0484,0.044,0.0409,0.0332,0.0207,0.0208,0.0106,0.0089,-0.0022,-0.0027,0.0012,0.0009,0.0035,0.0035,0.0035,0.0035,0.0035,0,0.0332,0.0363,0.0392,0.0412,0.0463,0.047,0.0521,0.0529,0.0551,0.058,0.0533,0.0529,0.042,0.0342,0.0237,0.0095,0.0123,-0.0011,-0.0044,0.0037,0.0038,0.001,0.0008,0.0032,0.0033,0.0033,0.0034,0,0.0349,0.0367,0.0413,0.0456,0.0475,0.051,0.0566,0.0602,0.0613,0.0647,0.0648,0.0596,0.0487,0.0362,0.0221,0.0123,-0.0002,-0.006,0.0031,0.0003,-0.0127,-0.0125,-0.0175,-0.0178,-0.018,-0.0181,-0.0183,0,0.0358,0.0382,0.0443,0.0475,0.0497,0.0551,0.0591,0.0628,0.0665,0.0679,0.0695,0.061,0.0549,0.0325,0.0181,-0.0023,-0.0061,-0.0125,-0.0118,-0.012,-0.0146,-0.0141,-0.0137,-0.0186,-0.0186,-0.0187,-0.0187,0,0.0376,0.0396,0.0434,0.0501,0.0551,0.0613,0.067,0.0703,0.0741,0.0754,0.073,0.0617,0.0486,0.0313,0.0143,-0.0003,-0.0079,-0.0146,-0.0142,-0.0136,-0.0133,-0.0156,-0.015,-0.0194,-0.0193,-0.0192,-0.0192,0,0.0387,0.0414,0.0463,0.0521,0.0588,0.0652,0.0685,0.0724,0.076,0.0776,0.0758,0.0629,0.0558,0.0321,0.0168,0.0013,-0.0026,-0.0071,-0.0073,-0.0067,-0.0027,-0.0006,-0.0051,0,0,0,0,0,0.0393,0.0424,0.0481,0.0546,0.0613,0.0654,0.0729,0.0757,0.0792,0.0782,0.0776,0.0654,0.0425,0.033,0.0167,0.0115,-0.0065,-0.0085,-0.012,-0.0231,-0.0224,-0.0201,0,0,0,0,0,0,0.0398,0.0448,0.0476,0.0554,0.0601,0.068,0.073,0.0757,0.0753,0.0763,0.0649,0.0598,0.0379,0.0518,0.0159,0.0112,0.0063,-0.0187,-0.0191,-0.0236,-0.0229,-0.0222,-0.0196,0,0,0,0,0]}]]